Вернуться в каталог

STARLINK-5807

АктивенСвязьVLEO
NORAD 55791·PAYLOAD·🇺🇸 United States

Запущен Mar 3, 2023 с Vandenberg Space Force Base

Loading…

Ближайшие Пролёты (ближайшие 24 часа)

TLE

СвежийSource: CelesTrak SupGP

Эпоха: Sep 15, 2026, 03:03 UTC

1 55791C 23028BC  26258.12756944 -.00049523  00000+0 -41502-2 0  2589
2 55791  70.0001  86.8704 0002877 269.7453 348.6480 14.98355988    14

Отслеживайте STARLINK-5807 в реальном времени с AllMySat

Download on the App Store